Date_Time,Julian_Date,Latitude,Longitude,Instrument_Depth,U,V,Speed,Direction
(yyyy-mm-dd hh:mn:ss UTC),(JD),(+ deg. North),(+ deg. East),(m),(cm/s),(cm/s),(cm/s),(deg True)
1983-03-02 19:30:00 UTC,2445396.312500,29.6650,-93.4789,0037,16.00,0.28,16.0000,89.0000
1983-03-02 20:00:00 UTC,2445396.333333,29.6650,-93.4789,0037,14.99,-0.52,15.0000,92.0000
1983-03-02 20:30:00 UTC,2445396.354167,29.6650,-93.4789,0037,13.92,-1.46,14.0000,96.0000
1983-03-02 21:00:00 UTC,2445396.375000,29.6650,-93.4789,0037,11.74,-2.49,12.0000,102.0000
1983-03-02 21:30:00 UTC,2445396.395833,29.6650,-93.4789,0037,10.86,-1.72,11.0000,99.0000
1983-03-02 22:00:00 UTC,2445396.416667,29.6650,-93.4789,0037,8.99,-0.31,9.0000,92.0000
1983-03-02 22:30:00 UTC,2445396.437500,29.6650,-93.4789,0037,7.99,-0.42,8.0000,93.0000
1983-03-02 23:00:00 UTC,2445396.458333,29.6650,-93.4789,0037,8.91,-1.25,9.0000,98.0000
1983-03-02 23:30:00 UTC,2445396.479167,29.6650,-93.4789,0037,9.34,-3.58,10.0000,111.0000
1983-03-03 00:00:00 UTC,2445396.500000,29.6650,-93.4789,0037,9.58,-7.22,12.0000,127.0000
1983-03-03 00:30:00 UTC,2445396.520833,29.6650,-93.4789,0037,9.90,-9.90,14.0000,135.0000
1983-03-03 01:00:00 UTC,2445396.541667,29.6650,-93.4789,0037,9.73,-10.07,14.0000,136.0000
1983-03-03 01:30:00 UTC,2445396.562500,29.6650,-93.4789,0037,9.64,-11.49,15.0000,140.0000
1983-03-03 02:00:00 UTC,2445396.583333,29.6650,-93.4789,0037,8.48,-13.57,16.0000,148.0000
1983-03-03 02:30:00 UTC,2445396.604167,29.6650,-93.4789,0037,7.45,-15.28,17.0000,154.0000
1983-03-03 03:00:00 UTC,2445396.625000,29.6650,-93.4789,0037,6.91,-15.53,17.0000,156.0000
1983-03-03 03:30:00 UTC,2445396.645833,29.6650,-93.4789,0037,6.64,-15.65,17.0000,157.0000
1983-03-03 04:00:00 UTC,2445396.666667,29.6650,-93.4789,0037,6.25,-14.73,16.0000,157.0000
1983-03-03 04:30:00 UTC,2445396.687500,29.6650,-93.4789,0037,6.51,-14.62,16.0000,156.0000
1983-03-03 05:00:00 UTC,2445396.708333,29.6650,-93.4789,0037,5.86,-13.81,15.0000,157.0000
1983-03-03 05:30:00 UTC,2445396.729167,29.6650,-93.4789,0037,4.39,-14.34,15.0000,163.0000
1983-03-03 06:00:00 UTC,2445396.750000,29.6650,-93.4789,0037,2.03,-12.84,13.0000,171.0000
1983-03-03 06:30:00 UTC,2445396.770833,29.6650,-93.4789,0037,-0.84,-11.97,12.0000,184.0000
1983-03-03 07:00:00 UTC,2445396.791667,29.6650,-93.4789,0037,-2.29,-11.78,12.0000,191.0000
1983-03-03 07:30:00 UTC,2445396.812500,29.6650,-93.4789,0037,-2.70,-12.72,13.0000,192.0000
1983-03-03 08:00:00 UTC,2445396.833333,29.6650,-93.4789,0037,-3.39,-13.58,14.0000,194.0000
1983-03-03 08:30:00 UTC,2445396.854167,29.6650,-93.4789,0037,-5.02,-13.07,14.0000,201.0000
1983-03-03 09:00:00 UTC,2445396.875000,29.6650,-93.4789,0037,-7.00,-12.12,14.0000,210.0000
1983-03-03 09:30:00 UTC,2445396.895833,29.6650,-93.4789,0037,-8.81,-10.88,14.0000,219.0000
1983-03-03 10:00:00 UTC,2445396.916667,29.6650,-93.4789,0037,-10.61,-10.61,15.0000,225.0000
1983-03-03 10:30:00 UTC,2445396.937500,29.6650,-93.4789,0037,-13.02,-10.93,17.0000,230.0000
1983-03-03 11:00:00 UTC,2445396.958333,29.6650,-93.4789,0037,-14.56,-10.58,18.0000,234.0000
1983-03-03 11:30:00 UTC,2445396.979167,29.6650,-93.4789,0037,-16.11,-10.07,19.0000,238.0000
1983-03-03 12:00:00 UTC,2445397.000000,29.6650,-93.4789,0037,-15.15,-7.72,17.0000,243.0000
1983-03-03 12:30:00 UTC,2445397.020833,29.6650,-93.4789,0037,-11.28,-4.10,12.0000,250.0000
1983-03-03 13:00:00 UTC,2445397.041667,29.6650,-93.4789,0037,-7.76,-1.94,8.0000,256.0000
1983-03-03 13:30:00 UTC,2445397.062500,29.6650,-93.4789,0037,-6.98,-0.49,7.0000,266.0000
1983-03-03 14:00:00 UTC,2445397.083333,29.6650,-93.4789,0037,-8.86,1.56,9.0000,280.0000
1983-03-03 14:30:00 UTC,2445397.104167,29.6650,-93.4789,0037,-6.73,1.93,7.0000,286.0000
1983-03-03 15:00:00 UTC,2445397.125000,29.6650,-93.4789,0037,-2.82,1.03,3.0000,290.0000
1983-03-03 15:30:00 UTC,2445397.145833,29.6650,-93.4789,0037,0.85,0.53,1.0000,58.0000
1983-03-03 16:00:00 UTC,2445397.166667,29.6650,-93.4789,0037,2.93,0.62,3.0000,78.0000
1983-03-03 16:30:00 UTC,2445397.187500,29.6650,-93.4789,0037,2.94,0.57,3.0000,79.0000
1983-03-03 17:00:00 UTC,2445397.208333,29.6650,-93.4789,0037,3.98,0.42,4.0000,84.0000
1983-03-03 17:30:00 UTC,2445397.229167,29.6650,-93.4789,0037,5.99,0.42,6.0000,86.0000
1983-03-03 18:00:00 UTC,2445397.250000,29.6650,-93.4789,0037,6.79,1.69,7.0000,76.0000
1983-03-03 18:30:00 UTC,2445397.270833,29.6650,-93.4789,0037,7.56,2.60,8.0000,71.0000
1983-03-03 19:00:00 UTC,2445397.291667,29.6650,-93.4789,0037,7.97,0.70,8.0000,85.0000
1983-03-03 19:30:00 UTC,2445397.312500,29.6650,-93.4789,0037,6.85,-1.46,7.0000,102.0000
1983-03-03 20:00:00 UTC,2445397.333333,29.6650,-93.4789,0037,4.41,-2.35,5.0000,118.0000
1983-03-03 20:30:00 UTC,2445397.354167,29.6650,-93.4789,0037,1.21,-4.85,5.0000,166.0000
1983-03-03 21:00:00 UTC,2445397.375000,29.6650,-93.4789,0037,0.42,-5.99,6.0000,176.0000
1983-03-03 21:30:00 UTC,2445397.395833,29.6650,-93.4789,0037,2.82,-5.30,6.0000,152.0000
1983-03-03 22:00:00 UTC,2445397.416667,29.6650,-93.4789,0037,2.93,-8.51,9.0000,161.0000
1983-03-03 22:30:00 UTC,2445397.437500,29.6650,-93.4789,0037,-2.70,-12.72,13.0000,192.0000
1983-03-03 23:00:00 UTC,2445397.458333,29.6650,-93.4789,0037,-8.95,-13.26,16.0000,214.0000
1983-03-03 23:30:00 UTC,2445397.479167,29.6650,-93.4789,0037,-12.23,-11.81,17.0000,226.0000
1983-03-04 00:00:00 UTC,2445397.500000,29.6650,-93.4789,0037,-13.79,-11.57,18.0000,230.0000
1983-03-04 00:30:00 UTC,2445397.520833,29.6650,-93.4789,0037,-14.56,-10.58,18.0000,234.0000
1983-03-04 01:00:00 UTC,2445397.541667,29.6650,-93.4789,0037,-14.42,-9.01,17.0000,238.0000
1983-03-04 01:30:00 UTC,2445397.562500,29.6650,-93.4789,0037,-15.01,-7.98,17.0000,242.0000
1983-03-04 02:00:00 UTC,2445397.583333,29.6650,-93.4789,0037,-15.22,-4.94,16.0000,252.0000
1983-03-04 02:30:00 UTC,2445397.604167,29.6650,-93.4789,0037,-16.96,-1.19,17.0000,266.0000
1983-03-04 03:00:00 UTC,2445397.625000,29.6650,-93.4789,0037,-16.96,1.19,17.0000,274.0000
1983-03-04 03:30:00 UTC,2445397.645833,29.6650,-93.4789,0037,-16.79,2.66,17.0000,279.0000
1983-03-04 04:00:00 UTC,2445397.666667,29.6650,-93.4789,0037,-14.62,3.37,15.0000,283.0000
1983-03-04 04:30:00 UTC,2445397.687500,29.6650,-93.4789,0037,-14.98,0.78,15.0000,273.0000
1983-03-04 05:00:00 UTC,2445397.708333,29.6650,-93.4789,0037,-17.98,-0.94,18.0000,267.0000
1983-03-04 05:30:00 UTC,2445397.729167,29.6650,-93.4789,0037,-21.97,1.15,22.0000,273.0000
1983-03-04 06:00:00 UTC,2445397.750000,29.6650,-93.4789,0037,-24.76,3.48,25.0000,278.0000
1983-03-04 06:30:00 UTC,2445397.770833,29.6650,-93.4789,0037,-25.75,3.62,26.0000,278.0000
1983-03-04 07:00:00 UTC,2445397.791667,29.6650,-93.4789,0037,-24.69,3.91,25.0000,279.0000
1983-03-04 07:30:00 UTC,2445397.812500,29.6650,-93.4789,0037,-24.54,4.77,25.0000,281.0000
1983-03-04 08:00:00 UTC,2445397.833333,29.6650,-93.4789,0037,-25.23,6.29,26.0000,284.0000
1983-03-04 08:30:00 UTC,2445397.854167,29.6650,-93.4789,0037,-26.08,6.99,27.0000,285.0000
1983-03-04 09:00:00 UTC,2445397.875000,29.6650,-93.4789,0037,-28.14,7.02,29.0000,284.0000
1983-03-04 09:30:00 UTC,2445397.895833,29.6650,-93.4789,0037,-30.43,5.91,31.0000,281.0000
1983-03-04 10:00:00 UTC,2445397.916667,29.6650,-93.4789,0037,-32.75,4.02,33.0000,277.0000
1983-03-04 10:30:00 UTC,2445397.937500,29.6650,-93.4789,0037,-33.67,4.73,34.0000,278.0000
1983-03-04 11:00:00 UTC,2445397.958333,29.6650,-93.4789,0037,-34.24,7.28,35.0000,282.0000
1983-03-04 11:30:00 UTC,2445397.979167,29.6650,-93.4789,0037,-33.81,9.06,35.0000,285.0000
1983-03-04 12:00:00 UTC,2445398.000000,29.6650,-93.4789,0037,-34.77,9.32,36.0000,285.0000
1983-03-04 12:30:00 UTC,2445398.020833,29.6650,-93.4789,0037,-35.90,8.95,37.0000,284.0000
1983-03-04 13:00:00 UTC,2445398.041667,29.6650,-93.4789,0037,-38.00,8.77,39.0000,283.0000
1983-03-04 13:30:00 UTC,2445398.062500,29.6650,-93.4789,0037,-40.25,7.82,41.0000,281.0000
1983-03-04 14:00:00 UTC,2445398.083333,29.6650,-93.4789,0037,-40.25,7.82,41.0000,281.0000
1983-03-04 14:30:00 UTC,2445398.104167,29.6650,-93.4789,0037,-38.00,8.77,39.0000,283.0000
1983-03-04 15:00:00 UTC,2445398.125000,29.6650,-93.4789,0037,-36.05,8.32,37.0000,283.0000
1983-03-04 15:30:00 UTC,2445398.145833,29.6650,-93.4789,0037,-34.10,7.87,35.0000,283.0000
1983-03-04 16:00:00 UTC,2445398.166667,29.6650,-93.4789,0037,-33.13,7.65,34.0000,283.0000
1983-03-04 16:30:00 UTC,2445398.187500,29.6650,-93.4789,0037,-35.34,6.87,36.0000,281.0000
1983-03-04 17:00:00 UTC,2445398.208333,29.6650,-93.4789,0037,-36.19,7.69,37.0000,282.0000
1983-03-04 17:30:00 UTC,2445398.229167,29.6650,-93.4789,0037,-36.05,8.32,37.0000,283.0000
1983-03-04 18:00:00 UTC,2445398.250000,29.6650,-93.4789,0037,-35.45,6.25,36.0000,280.0000
1983-03-04 18:30:00 UTC,2445398.270833,29.6650,-93.4789,0037,-34.74,4.27,35.0000,277.0000
1983-03-04 19:00:00 UTC,2445398.291667,29.6650,-93.4789,0037,-36.86,3.22,37.0000,275.0000
1983-03-04 19:30:00 UTC,2445398.312500,29.6650,-93.4789,0037,-37.95,1.99,38.0000,273.0000
1983-03-04 20:00:00 UTC,2445398.333333,29.6650,-93.4789,0037,-37.86,3.31,38.0000,275.0000
1983-03-04 20:30:00 UTC,2445398.354167,29.6650,-93.4789,0037,-36.54,5.79,37.0000,279.0000
1983-03-04 21:00:00 UTC,2445398.375000,29.6650,-93.4789,0037,-36.32,7.06,37.0000,281.0000
1983-03-04 21:30:00 UTC,2445398.395833,29.6650,-93.4789,0037,-34.24,7.28,35.0000,282.0000
1983-03-04 22:00:00 UTC,2445398.416667,29.6650,-93.4789,0037,-33.38,6.49,34.0000,281.0000
1983-03-04 22:30:00 UTC,2445398.437500,29.6650,-93.4789,0037,-34.66,4.87,35.0000,278.0000
1983-03-04 23:00:00 UTC,2445398.458333,29.6650,-93.4789,0037,-34.87,3.05,35.0000,275.0000
1983-03-04 23:30:00 UTC,2445398.479167,29.6650,-93.4789,0037,-35.91,2.51,36.0000,274.0000
1983-03-05 00:00:00 UTC,2445398.500000,29.6650,-93.4789,0037,-38.95,2.04,39.0000,273.0000
1983-03-05 00:30:00 UTC,2445398.520833,29.6650,-93.4789,0037,-40.98,1.43,41.0000,272.0000
1983-03-05 01:00:00 UTC,2445398.541667,29.6650,-93.4789,0037,-40.94,2.15,41.0000,273.0000
1983-03-05 01:30:00 UTC,2445398.562500,29.6650,-93.4789,0037,-39.85,3.49,40.0000,275.0000
1983-03-05 02:00:00 UTC,2445398.583333,29.6650,-93.4789,0037,-39.85,3.49,40.0000,275.0000
1983-03-05 02:30:00 UTC,2445398.604167,29.6650,-93.4789,0037,-39.95,2.09,40.0000,273.0000
1983-03-05 03:00:00 UTC,2445398.625000,29.6650,-93.4789,0037,-39.00,-0.00,39.0000,270.0000
1983-03-05 03:30:00 UTC,2445398.645833,29.6650,-93.4789,0037,-38.98,-1.36,39.0000,268.0000
1983-03-05 04:00:00 UTC,2445398.666667,29.6650,-93.4789,0037,-38.00,-0.00,38.0000,270.0000
1983-03-05 04:30:00 UTC,2445398.687500,29.6650,-93.4789,0037,-35.80,3.76,36.0000,276.0000
1983-03-05 05:00:00 UTC,2445398.708333,29.6650,-93.4789,0037,-33.67,4.73,34.0000,278.0000
1983-03-05 05:30:00 UTC,2445398.729167,29.6650,-93.4789,0037,-33.81,3.55,34.0000,276.0000
1983-03-05 06:00:00 UTC,2445398.750000,29.6650,-93.4789,0037,-35.80,3.76,36.0000,276.0000
1983-03-05 06:30:00 UTC,2445398.770833,29.6650,-93.4789,0037,-35.80,3.76,36.0000,276.0000
1983-03-05 07:00:00 UTC,2445398.791667,29.6650,-93.4789,0037,-34.95,1.83,35.0000,273.0000
1983-03-05 07:30:00 UTC,2445398.812500,29.6650,-93.4789,0037,-34.99,0.61,35.0000,271.0000
1983-03-05 08:00:00 UTC,2445398.833333,29.6650,-93.4789,0037,-34.98,1.22,35.0000,272.0000
1983-03-05 08:30:00 UTC,2445398.854167,29.6650,-93.4789,0037,-32.87,2.88,33.0000,275.0000
1983-03-05 09:00:00 UTC,2445398.875000,29.6650,-93.4789,0037,-32.75,4.02,33.0000,277.0000
1983-03-05 09:30:00 UTC,2445398.895833,29.6650,-93.4789,0037,-33.58,5.32,34.0000,279.0000
1983-03-05 10:00:00 UTC,2445398.916667,29.6650,-93.4789,0037,-37.30,7.25,38.0000,281.0000
1983-03-05 10:30:00 UTC,2445398.937500,29.6650,-93.4789,0037,-40.75,10.16,42.0000,284.0000
1983-03-05 11:00:00 UTC,2445398.958333,29.6650,-93.4789,0037,-40.37,11.58,42.0000,286.0000
1983-03-05 11:30:00 UTC,2445398.979167,29.6650,-93.4789,0037,-36.34,11.11,38.0000,287.0000
1983-03-05 12:00:00 UTC,2445399.000000,29.6650,-93.4789,0037,-32.22,13.68,35.0000,293.0000
1983-03-05 12:30:00 UTC,2445399.020833,29.6650,-93.4789,0037,-26.85,15.50,31.0000,300.0000
1983-03-05 13:00:00 UTC,2445399.041667,29.6650,-93.4789,0037,-21.38,10.90,24.0000,297.0000
1983-03-05 13:30:00 UTC,2445399.062500,29.6650,-93.4789,0037,-19.63,3.82,20.0000,281.0000
1983-03-05 14:00:00 UTC,2445399.083333,29.6650,-93.4789,0037,-24.86,2.61,25.0000,276.0000
1983-03-05 14:30:00 UTC,2445399.104167,29.6650,-93.4789,0037,-33.81,3.55,34.0000,276.0000
1983-03-05 15:00:00 UTC,2445399.125000,29.6650,-93.4789,0037,-38.95,2.04,39.0000,273.0000
1983-03-05 15:30:00 UTC,2445399.145833,29.6650,-93.4789,0037,-40.00,-0.00,40.0000,270.0000
1983-03-05 16:00:00 UTC,2445399.166667,29.6650,-93.4789,0037,-35.00,-0.00,35.0000,270.0000
1983-03-05 16:30:00 UTC,2445399.187500,29.6650,-93.4789,0037,-26.98,-0.94,27.0000,268.0000
1983-03-05 17:00:00 UTC,2445399.208333,29.6650,-93.4789,0037,-26.31,-6.07,27.0000,257.0000
1983-03-05 17:30:00 UTC,2445399.229167,29.6650,-93.4789,0037,-31.05,-7.74,32.0000,256.0000
1983-03-05 18:00:00 UTC,2445399.250000,29.6650,-93.4789,0037,-35.56,-5.63,36.0000,261.0000
1983-03-05 18:30:00 UTC,2445399.270833,29.6650,-93.4789,0037,-35.56,-5.63,36.0000,261.0000
1983-03-05 19:00:00 UTC,2445399.291667,29.6650,-93.4789,0037,-31.72,-9.10,33.0000,254.0000
1983-03-05 19:30:00 UTC,2445399.312500,29.6650,-93.4789,0037,-30.81,-11.83,33.0000,249.0000
1983-03-05 20:00:00 UTC,2445399.333333,29.6650,-93.4789,0037,-31.01,-11.29,33.0000,250.0000
1983-03-05 20:30:00 UTC,2445399.354167,29.6650,-93.4789,0037,-28.94,-11.11,31.0000,249.0000
1983-03-05 21:00:00 UTC,2445399.375000,29.6650,-93.4789,0037,-26.69,-11.33,29.0000,247.0000
1983-03-05 21:30:00 UTC,2445399.395833,29.6650,-93.4789,0037,-25.21,-9.68,27.0000,249.0000
1983-03-05 22:00:00 UTC,2445399.416667,29.6650,-93.4789,0037,-22.83,-7.42,24.0000,252.0000
1983-03-05 22:30:00 UTC,2445399.437500,29.6650,-93.4789,0037,-22.69,-7.81,24.0000,251.0000
1983-03-05 23:00:00 UTC,2445399.458333,29.6650,-93.4789,0037,-26.14,-10.03,28.0000,249.0000
1983-03-05 23:30:00 UTC,2445399.479167,29.6650,-93.4789,0037,-28.37,-9.77,30.0000,251.0000
1983-03-06 00:00:00 UTC,2445399.500000,29.6650,-93.4789,0037,-28.53,-9.27,30.0000,252.0000
1983-03-06 00:30:00 UTC,2445399.520833,29.6650,-93.4789,0037,-29.48,-9.58,31.0000,252.0000
1983-03-06 01:00:00 UTC,2445399.541667,29.6650,-93.4789,0037,-31.41,-6.11,32.0000,259.0000
1983-03-06 01:30:00 UTC,2445399.562500,29.6650,-93.4789,0037,-28.72,-4.04,29.0000,262.0000
1983-03-06 02:00:00 UTC,2445399.583333,29.6650,-93.4789,0037,-24.15,-6.47,25.0000,255.0000
1983-03-06 02:30:00 UTC,2445399.604167,29.6650,-93.4789,0037,-21.93,-9.76,24.0000,246.0000
1983-03-06 03:00:00 UTC,2445399.625000,29.6650,-93.4789,0037,-21.19,-11.27,24.0000,242.0000
1983-03-06 03:30:00 UTC,2445399.645833,29.6650,-93.4789,0037,-20.67,-10.08,23.0000,244.0000
1983-03-06 04:00:00 UTC,2445399.666667,29.6650,-93.4789,0037,-18.54,-7.49,20.0000,248.0000
1983-03-06 04:30:00 UTC,2445399.687500,29.6650,-93.4789,0037,-15.65,-6.64,17.0000,247.0000
1983-03-06 05:00:00 UTC,2445399.708333,29.6650,-93.4789,0037,-12.00,-7.21,14.0000,239.0000
1983-03-06 05:30:00 UTC,2445399.729167,29.6650,-93.4789,0037,-13.26,-8.95,16.0000,236.0000
1983-03-06 06:00:00 UTC,2445399.750000,29.6650,-93.4789,0037,-19.05,-11.00,22.0000,240.0000
1983-03-06 06:30:00 UTC,2445399.770833,29.6650,-93.4789,0037,-24.95,-12.71,28.0000,243.0000
1983-03-06 07:00:00 UTC,2445399.791667,29.6650,-93.4789,0037,-27.86,-13.59,31.0000,244.0000
1983-03-06 07:30:00 UTC,2445399.812500,29.6650,-93.4789,0037,-27.11,-15.03,31.0000,241.0000
1983-03-06 08:00:00 UTC,2445399.833333,29.6650,-93.4789,0037,-24.04,-16.22,29.0000,236.0000
1983-03-06 08:30:00 UTC,2445399.854167,29.6650,-93.4789,0037,-20.73,-13.98,25.0000,236.0000
1983-03-06 09:00:00 UTC,2445399.875000,29.6650,-93.4789,0037,-20.12,-11.15,23.0000,241.0000
1983-03-06 09:30:00 UTC,2445399.895833,29.6650,-93.4789,0037,-19.94,-9.30,22.0000,245.0000
1983-03-06 10:00:00 UTC,2445399.916667,29.6650,-93.4789,0037,-20.25,-8.60,22.0000,247.0000
1983-03-06 10:30:00 UTC,2445399.937500,29.6650,-93.4789,0037,-21.87,-7.11,23.0000,252.0000
1983-03-06 11:00:00 UTC,2445399.958333,29.6650,-93.4789,0037,-20.95,-1.46,21.0000,266.0000
1983-03-06 11:30:00 UTC,2445399.979167,29.6650,-93.4789,0037,-18.82,2.64,19.0000,278.0000
1983-03-06 12:00:00 UTC,2445400.000000,29.6650,-93.4789,0037,-18.00,0.31,18.0000,271.0000
1983-03-06 12:30:00 UTC,2445400.020833,29.6650,-93.4789,0037,-18.77,-2.97,19.0000,261.0000
1983-03-06 13:00:00 UTC,2445400.041667,29.6650,-93.4789,0037,-18.71,-3.30,19.0000,260.0000
1983-03-06 13:30:00 UTC,2445400.062500,29.6650,-93.4789,0037,-20.84,-2.56,21.0000,263.0000
1983-03-06 14:00:00 UTC,2445400.083333,29.6650,-93.4789,0037,-23.82,-2.92,24.0000,263.0000
1983-03-06 14:30:00 UTC,2445400.104167,29.6650,-93.4789,0037,-25.52,-4.96,26.0000,259.0000
1983-03-06 15:00:00 UTC,2445400.125000,29.6650,-93.4789,0037,-28.47,-5.53,29.0000,259.0000
1983-03-06 15:30:00 UTC,2445400.145833,29.6650,-93.4789,0037,-32.59,-5.16,33.0000,261.0000
1983-03-06 16:00:00 UTC,2445400.166667,29.6650,-93.4789,0037,-35.56,-5.63,36.0000,261.0000
1983-03-06 16:30:00 UTC,2445400.187500,29.6650,-93.4789,0037,-35.65,-5.01,36.0000,262.0000
1983-03-06 17:00:00 UTC,2445400.208333,29.6650,-93.4789,0037,-32.50,-5.73,33.0000,260.0000
1983-03-06 17:30:00 UTC,2445400.229167,29.6650,-93.4789,0037,-27.05,-7.25,28.0000,255.0000
1983-03-06 18:00:00 UTC,2445400.250000,29.6650,-93.4789,0037,-23.07,-6.62,24.0000,254.0000
1983-03-06 18:30:00 UTC,2445400.270833,29.6650,-93.4789,0037,-24.36,-5.62,25.0000,257.0000
1983-03-06 19:00:00 UTC,2445400.291667,29.6650,-93.4789,0037,-26.50,-5.15,27.0000,259.0000
1983-03-06 19:30:00 UTC,2445400.312500,29.6650,-93.4789,0037,-28.72,-4.04,29.0000,262.0000
1983-03-06 20:00:00 UTC,2445400.333333,29.6650,-93.4789,0037,-29.84,-3.14,30.0000,264.0000
1983-03-06 20:30:00 UTC,2445400.354167,29.6650,-93.4789,0037,-28.98,-1.01,29.0000,268.0000
1983-03-06 21:00:00 UTC,2445400.375000,29.6650,-93.4789,0037,-28.89,2.53,29.0000,275.0000
1983-03-06 21:30:00 UTC,2445400.395833,29.6650,-93.4789,0037,-28.26,6.52,29.0000,283.0000
1983-03-06 22:00:00 UTC,2445400.416667,29.6650,-93.4789,0037,-26.63,8.65,28.0000,288.0000
1983-03-06 22:30:00 UTC,2445400.437500,29.6650,-93.4789,0037,-26.47,9.12,28.0000,289.0000
1983-03-06 23:00:00 UTC,2445400.458333,29.6650,-93.4789,0037,-27.73,8.48,29.0000,287.0000
1983-03-06 23:30:00 UTC,2445400.479167,29.6650,-93.4789,0037,-27.05,7.25,28.0000,285.0000
1983-03-07 00:00:00 UTC,2445400.500000,29.6650,-93.4789,0037,-27.05,7.25,28.0000,285.0000
1983-03-07 00:30:00 UTC,2445400.520833,29.6650,-93.4789,0037,-27.05,7.25,28.0000,285.0000
1983-03-07 01:00:00 UTC,2445400.541667,29.6650,-93.4789,0037,-25.95,7.44,27.0000,286.0000
1983-03-07 01:30:00 UTC,2445400.562500,29.6650,-93.4789,0037,-24.99,7.17,26.0000,286.0000
1983-03-07 02:00:00 UTC,2445400.583333,29.6650,-93.4789,0037,-23.07,6.62,24.0000,286.0000
1983-03-07 02:30:00 UTC,2445400.604167,29.6650,-93.4789,0037,-22.95,7.02,24.0000,287.0000
1983-03-07 03:00:00 UTC,2445400.625000,29.6650,-93.4789,0037,-21.15,6.06,22.0000,286.0000
1983-03-07 03:30:00 UTC,2445400.645833,29.6650,-93.4789,0037,-20.38,5.08,21.0000,284.0000
1983-03-07 04:00:00 UTC,2445400.666667,29.6650,-93.4789,0037,-19.56,4.16,20.0000,282.0000
1983-03-07 04:30:00 UTC,2445400.687500,29.6650,-93.4789,0037,-16.83,2.37,17.0000,278.0000
1983-03-07 05:00:00 UTC,2445400.708333,29.6650,-93.4789,0037,-12.98,0.68,13.0000,273.0000
1983-03-07 05:30:00 UTC,2445400.729167,29.6650,-93.4789,0037,-10.99,-0.38,11.0000,268.0000
1983-03-07 06:00:00 UTC,2445400.750000,29.6650,-93.4789,0037,-9.99,-0.52,10.0000,267.0000
1983-03-07 06:30:00 UTC,2445400.770833,29.6650,-93.4789,0037,-9.99,0.35,10.0000,272.0000
1983-03-07 07:00:00 UTC,2445400.791667,29.6650,-93.4789,0037,-9.93,1.22,10.0000,277.0000
1983-03-07 07:30:00 UTC,2445400.812500,29.6650,-93.4789,0037,-8.77,2.02,9.0000,283.0000
1983-03-07 08:00:00 UTC,2445400.833333,29.6650,-93.4789,0037,-7.61,2.47,8.0000,288.0000
1983-03-07 08:30:00 UTC,2445400.854167,29.6650,-93.4789,0037,-6.76,1.81,7.0000,285.0000
1983-03-07 09:00:00 UTC,2445400.875000,29.6650,-93.4789,0037,-7.83,1.66,8.0000,282.0000
1983-03-07 09:30:00 UTC,2445400.895833,29.6650,-93.4789,0037,-7.52,2.74,8.0000,290.0000
1983-03-07 10:00:00 UTC,2445400.916667,29.6650,-93.4789,0037,-7.63,4.77,9.0000,302.0000
1983-03-07 10:30:00 UTC,2445400.937500,29.6650,-93.4789,0037,-7.99,6.02,10.0000,307.0000
1983-03-07 11:00:00 UTC,2445400.958333,29.6650,-93.4789,0037,-8.55,6.92,11.0000,309.0000
1983-03-07 11:30:00 UTC,2445400.979167,29.6650,-93.4789,0037,-8.78,8.18,12.0000,313.0000
1983-03-07 12:00:00 UTC,2445401.000000,29.6650,-93.4789,0037,-8.34,8.63,12.0000,316.0000
1983-03-07 12:30:00 UTC,2445401.020833,29.6650,-93.4789,0037,-7.39,9.46,12.0000,322.0000
1983-03-07 13:00:00 UTC,2445401.041667,29.6650,-93.4789,0037,-4.82,9.89,11.0000,334.0000
1983-03-07 13:30:00 UTC,2445401.062500,29.6650,-93.4789,0037,-3.42,9.40,10.0000,340.0000
1983-03-07 14:00:00 UTC,2445401.083333,29.6650,-93.4789,0037,-3.26,9.46,10.0000,341.0000
1983-03-07 14:30:00 UTC,2445401.104167,29.6650,-93.4789,0037,-1.87,8.80,9.0000,348.0000
1983-03-07 15:00:00 UTC,2445401.125000,29.6650,-93.4789,0037,-0.49,6.98,7.0000,356.0000
1983-03-07 15:30:00 UTC,2445401.145833,29.6650,-93.4789,0037,-0.73,5.96,6.0000,353.0000
1983-03-07 16:00:00 UTC,2445401.166667,29.6650,-93.4789,0037,-1.95,4.60,5.0000,337.0000
1983-03-07 16:30:00 UTC,2445401.187500,29.6650,-93.4789,0037,-2.97,2.68,4.0000,312.0000
1983-03-07 17:00:00 UTC,2445401.208333,29.6650,-93.4789,0037,-2.67,1.36,3.0000,297.0000
1983-03-07 17:30:00 UTC,2445401.229167,29.6650,-93.4789,0037,-1.80,0.88,2.0000,296.0000
1983-03-07 18:00:00 UTC,2445401.250000,29.6650,-93.4789,0037,1.00,-0.09,1.0000,95.0000
1983-03-07 18:30:00 UTC,2445401.270833,29.6650,-93.4789,0037,1.60,-1.20,2.0000,127.0000
1983-03-07 19:00:00 UTC,2445401.291667,29.6650,-93.4789,0037,1.22,-2.74,3.0000,156.0000
1983-03-07 19:30:00 UTC,2445401.312500,29.6650,-93.4789,0037,-0.76,-3.93,4.0000,191.0000
1983-03-07 20:00:00 UTC,2445401.333333,29.6650,-93.4789,0037,-2.83,-2.83,4.0000,225.0000
1983-03-07 20:30:00 UTC,2445401.354167,29.6650,-93.4789,0037,-3.24,-2.35,4.0000,234.0000
1983-03-07 21:00:00 UTC,2445401.375000,29.6650,-93.4789,0037,-1.75,-3.60,4.0000,206.0000
1983-03-07 21:30:00 UTC,2445401.395833,29.6650,-93.4789,0037,0.49,-3.97,4.0000,173.0000
1983-03-07 22:00:00 UTC,2445401.416667,29.6650,-93.4789,0037,2.06,-3.43,4.0000,149.0000
1983-03-07 22:30:00 UTC,2445401.437500,29.6650,-93.4789,0037,3.01,-3.99,5.0000,143.0000
1983-03-07 23:00:00 UTC,2445401.458333,29.6650,-93.4789,0037,2.50,-4.33,5.0000,150.0000
1983-03-07 23:30:00 UTC,2445401.479167,29.6650,-93.4789,0037,1.69,-3.63,4.0000,155.0000
1983-03-08 00:00:00 UTC,2445401.500000,29.6650,-93.4789,0037,1.69,-3.63,4.0000,155.0000
1983-03-08 00:30:00 UTC,2445401.520833,29.6650,-93.4789,0037,1.50,-3.71,4.0000,158.0000
1983-03-08 01:00:00 UTC,2445401.541667,29.6650,-93.4789,0037,0.88,-2.87,3.0000,163.0000
1983-03-08 01:30:00 UTC,2445401.562500,29.6650,-93.4789,0037,0.09,-1.00,1.0000,175.0000
1983-03-08 02:00:00 UTC,2445401.583333,29.6650,-93.4789,0037,3.66,8.22,9.0000,24.0000
1983-03-08 02:30:00 UTC,2445401.604167,29.6650,-93.4789,0037,-0.54,0.84,1.0000,327.0000
1983-03-08 03:00:00 UTC,2445401.625000,29.6650,-93.4789,0037,-0.37,0.93,1.0000,338.0000
1983-03-08 03:30:00 UTC,2445401.645833,29.6650,-93.4789,0037,-0.59,0.81,1.0000,324.0000
1983-03-08 04:00:00 UTC,2445401.666667,29.6650,-93.4789,0037,-0.60,0.80,1.0000,323.0000
1983-03-08 04:30:00 UTC,2445401.687500,29.6650,-93.4789,0037,-0.14,2.00,2.0000,356.0000
1983-03-08 05:00:00 UTC,2445401.708333,29.6650,-93.4789,0037,1.17,2.76,3.0000,23.0000
1983-03-08 05:30:00 UTC,2445401.729167,29.6650,-93.4789,0037,2.94,4.05,5.0000,36.0000
1983-03-08 06:00:00 UTC,2445401.750000,29.6650,-93.4789,0037,4.11,5.66,7.0000,36.0000
1983-03-08 06:30:00 UTC,2445401.770833,29.6650,-93.4789,0037,4.50,7.79,9.0000,30.0000
1983-03-08 07:00:00 UTC,2445401.791667,29.6650,-93.4789,0037,5.45,8.39,10.0000,33.0000
1983-03-08 07:30:00 UTC,2445401.812500,29.6650,-93.4789,0037,7.64,7.91,11.0000,44.0000